Погода в Тураифе

Саудовская Аравия     31°40′16″N   38°40′16″E
темп.,
°C
ветер,
м/с
пор.,
м/с
влажн.,
%
обл.,
%
осадки,
мм/ч
давл.,
гПа
погр.,
м
10 мая, пн
пн1000:00+27юз332065 0.0 101016
03:00+26зюз442134 0.0 101036
06:00+24зюз442269 0.0 101038
09:00+29юз571627 0.0 1010526
12:00+33зюз8912100 0.0 10092411
15:00+33з8811100 0.0 10074007
18:00+32з6611100 0.0 10063364
21:00+25ююз6929100 0.1 1011528
11 мая, вт
вт1100:00+26юз341871 0.0 100844
03:00+23сз33243 0.0 100819
06:00+21зсз01320 0.0 100911
09:00+27ююз23200 0.0 1009579
12:00+31зюз56160 0.0 10081778
15:00+33з58125 0.0 10064738
18:00+32зсз7612100 0.0 10043576
21:00+26юз61123100 0.0 1008325
12 мая, ср
ср1200:00+25юз222783 0.0 100818
03:00+23зсз463239 0.0 100779
06:00+22зсз33253 0.0 100826
09:00+27с33160 0.0 1008470
12:00+30з22150 0.0 10082120
15:00+32з43120 0.0 10063396
18:00+32зсз32110 0.0 10063124
21:00+29с33140 0.0 100715
13 мая, чт
чт1300:00+26ссз68190 0.0 1008129
03:00+23с59230 0.0 1008135
06:00+23св45230 0.0 100862
09:00+28св33180 0.0 1009537
12:00+32с12130 0.0 10073142
15:00+34зсз22102 0.0 10064336
18:00+34сз5391 0.0 10062830
21:00+30сз58134 0.0 1008142
14 мая, пт
пт1400:00+26ссз56180 0.0 101095
03:00+24с46230 0.0 101069
06:00+23ссв59220 0.0 1011133
09:00+29всв79140 0.0 1011811
12:00+34вюв54110 0.0 10102639
15:00+35ююз2190 0.0 10083960
18:00+34з1180 0.0 10083872
21:00+30с611130 0.0 1009170